Location: Chircca
(13.7944°S, 72.0608°W)
Time: 06:30:23
(UTC+00:00)

Cosmos 1340 Rocket - Pass Details

Date: 14 July 2020
Orbit: 528 x 560 km, 81.2° (Epoch: 14 August)

Event Time Altitude Azimuth Distance (km) Brightness Sun altitude
Rises 10:26:46 0° 189° (S) 2,736 6.1 -11.3°
Reaches altitude 10° 10:28:56 10° 191° (S) 1,842 5.2 -10.8°
Maximum altitude 10:32:59 72° 275° (W) 588 2.8 -9.9°
Drops below altitude 10° 10:37:02 10° 359° (N) 1,835 5.7 -8.9°
Sets 10:39:12 0° 1° (N) 2,726 6.7 -8.4°
